Orbital Elements at Epoch 2459000.5 (2020-May-31.0) TDB
Reference: JPL 24 (heliocentric ecliptic J2000)
Element | Value | Uncertainty (1-sigma) | Units |
e | .1647595634500998 | 4.8919e-08 | |
a | 2.642335370904984 | 1.3898e-08 | au |
q | 2.206985348705921 | 1.3465e-07 | au |
i | 14.2097569560498 | 5.1453e-06 | deg |
node | 11.6702657883889 | 1.6642e-05 | deg |
peri | 350.7821696098293 | 2.083e-05 | deg |
M | 301.5704719532513 | 1.3572e-05 | deg |
tp | 2459255.130376413719 (2021-Feb-09.63037641) | 6.0059e-05 | TDB |
period | 1568.846071041298 4.30 | 1.2378e-05 3.389e-08 | d yr |
n | .2294680189759187 | 1.8104e-09 | deg/d |
Q | 3.077685393104047 | 1.6188e-08 | au |
|
| | Orbit Determination Parameters
Additional Information
|